Terug naar catalogus

JILIN-01 KUANFU 02B 6

ActiefWetenschapSSO
NORAD 61194·PAYLOAD·🇨🇳 China

Gelanceerd Sep 20, 2024 vanaf Taiyuan Satellite Launch Center

Loading…

Volgende Passages (komende 24 uur)

TLE

VersSource: Space-Track

Epoch: Sep 14, 2026, 14:18 UTC

1 61194U 24169F   26257.59596471  .00003341  00000-0  21247-3 0  9991
2 61194  97.5531 345.7845 0016702  20.6451 339.5449 15.09389661109323

Volg JILIN-01 KUANFU 02B 6 in realtime met AllMySat

Download on the App Store